sat.trackr.live / text

‹ back to catalog

STARLINK-30288

NORAD 57698 · 2023-129A

PAYLOAD ACTIVE UNKNOWN

§ Identity

Operator
Country
US
Launch date
2023-08-27
Launch site
AFETR
Launch vehicle
Mass (kg)
RCS (m²)

Purposes: comms

External: N2YO · Heavens-Above · Gunter

§ Orbital elements

Epoch: 2026-05-25T02:19:47.145216Z

Period
94.27 min
Inclination
43.0071°
Eccentricity
0.0001345
Mean motion
15.27565549 rev/d
Perigee alt
482.2 km
Apogee alt
484.0 km
Semi-major
6,861.2 km
B*
5.3825e-5
RAAN
46.7684°
Arg perigee
269.9533°
Mean anomaly
90.1165°
Rev number
15,236

§ Raw data

STARLINK-302881 57698U 23129A   26145.09707344  .00001219  00000+0  53825-4 0  99932 57698  43.0071  46.7684 0001345 269.9533  90.1165 15.27565549152365

JSON: /api/v1/satellites/57698 · /tle

For live sub-satellite position, see the globe view (requires WebGL).

§ Visibility from observer

Set your observer location to see the next 7 days of passes ≥ 10°. The values pass through the URL so the page stays shareable.

No JS? Fill the form by hand. The geolocation button needs JavaScript.